GHS-01

Last updated on Sun Dec 14 2025 00:02:12 GMT+0000 (Coordinated Universal Time)

1 65733U 98067XM 25346.69021224 .00264493 00000+0 17047-2 0 9998 2 65733 51.6272 135.4559 0007160 280.4692 79.5500 15.74787819 13171
UTC large
Height (km)
Speed (km/s)
/
Latitude / Longitude
Inclination (degrees)
Orbital Period (minutes)
Azimuth
Elevation
Range (km)
Doppler Factor

Next 0 passes for location: London (51.5072 / 0.1276)

Sorry there are no passes over London.